Weather History for KHEY - August, 2013

Change the Weather History Date:

Thursday, August 22, 2013

  Actual Average (KDHN) Record (KDHN)
Temperature  
Mean Temperature 80 °F 81 °F  
Max Temperature 89 °F 91 °F - ()
Min Temperature 71 °F 71 °F - ()
Cooling Degree Days 15 16  
Month to date cooling degree days 362  
Year to date cooling degree days 1743  
Since 1 June cooling degree days 1330  
Growing Degree Days 30 (Base 50)    
Moisture  
Dew Point 71 °F    
Average Humidity 79    
Maximum Humidity 93    
Minimum Humidity 55    
Precipitation  
Precipitation 0.00 in 0.14 in - ()
Month to date precipitation 3.29  
Year to date precipitation 37.20  
Sea Level Pressure  
Sea Level Pressure 29.83 in    
Wind  
Wind Speed 5 mph (East)    
Max Wind Speed 14 mph    
Max Gust Speed 25 mph    
Visibility 10 miles    
Events Thunderstorm    
T = Trace of Precipitation, MM = Missing Value Source: NWS Daily Summary

Daily Weather History Graph

Daily Weather History Graph

Search for Another Location

Airport or City:

Trip Planner

Search our weather history database for the weather conditions in past years. The results will help you decide how hot, cold, wet, or windy it might be!

Date:

Astronomy

Aug. 22, 2013 Rise Set
Actual Time 6:12 AM CDT 7:17 PM CDT
Civil Twilight 5:47 AM CDT 7:42 PM CDT
Nautical Twilight 5:17 AM CDT 8:12 PM CDT
Astronomical Twilight 4:46 AM CDT 8:43 PM CDT
Moon 8:14 PM CDT (8/22) 7:49 AM CDT (8/22)
Length of Visible Light 13h 55m
Length of Day
13h 05m
Waning Gibbous, 96% of the Moon is Illuminated
Aug 22
Waning Gibbous
Aug 28
Last Quarter
Sep 5
New
Sep 12
First Quarter
Sep 19
Full

Hourly Weather History & Observations

Time (CDT) Temp. Heat Index Dew Point Humidity Pressure Visibility Wind Dir Wind Speed Gust Speed Precip Events Conditions
12:53 AM 73.0 °F - 70.0 °F 90% 29.80 in 10.0 mi East 4.6 mph - N/A   Clear
1:53 AM 73.0 °F - 70.0 °F 90% 29.79 in 10.0 mi ENE 3.5 mph - N/A   Clear
2:53 AM 73.0 °F - 69.1 °F 87% 29.78 in 10.0 mi NNE 5.8 mph - N/A   Clear
3:53 AM 72.0 °F - 69.1 °F 91% 29.79 in 10.0 mi NNE 4.6 mph - N/A   Clear
4:53 AM 71.1 °F - 69.1 °F 93% 29.78 in 10.0 mi Calm Calm - N/A   Clear
5:53 AM 71.1 °F - 69.1 °F 93% 29.78 in 10.0 mi ENE 3.5 mph - N/A   Clear
6:53 AM 73.0 °F - 69.1 °F 87% 29.79 in 10.0 mi Variable 4.6 mph - N/A   Clear
7:53 AM 75.0 °F - 71.1 °F 87% 29.80 in 10.0 mi ENE 6.9 mph - N/A   Clear
8:12 AM 75.2 °F - 71.6 °F 89% 30.14 in 10.0 mi East 6.9 mph - N/A   Partly Cloudy
8:30 AM 77.0 °F - 71.6 °F 83% 30.14 in 10.0 mi East 6.9 mph - N/A   Mostly Cloudy
8:48 AM 78.8 °F - 71.6 °F 78% 30.14 in 10.0 mi Variable 3.5 mph - N/A   Scattered Clouds
8:53 AM 79.0 °F - 73.0 °F 82% 29.81 in 10.0 mi Variable 3.5 mph - N/A   Scattered Clouds
9:53 AM 82.9 °F 89.4 °F 73.9 °F 74% 29.81 in 10.0 mi ENE 6.9 mph - N/A   Partly Cloudy
10:53 AM 84.9 °F 91.4 °F 73.0 °F 67% 29.81 in 10.0 mi ESE 6.9 mph - N/A   Partly Cloudy
11:53 AM 87.1 °F 94.5 °F 73.0 °F 63% 29.79 in 10.0 mi East 6.9 mph - N/A   Mostly Cloudy
12:53 PM 89.1 °F 95.0 °F 71.1 °F 55% 29.74 in 10.0 mi Variable 4.6 mph - N/A   Scattered Clouds
1:21 PM 87.8 °F 92.6 °F 69.8 °F 55% 30.08 in 10.0 mi ENE 13.8 mph 18.4 mph N/A Thunderstorm Mostly Cloudy
1:36 PM 87.8 °F 92.6 °F 69.8 °F 55% 30.08 in 10.0 mi NE 12.7 mph - N/A   Scattered Clouds
1:53 PM 87.1 °F 94.5 °F 73.0 °F 63% 29.75 in 10.0 mi ENE 9.2 mph - N/A   Clear
2:38 PM 80.6 °F 84.6 °F 71.6 °F 74% 30.10 in 10.0 mi SE 12.7 mph 25.3 mph N/A Thunderstorm Thunderstorm
2:53 PM 78.1 °F - 70.0 °F 76% 29.75 in 10.0 mi SE 13.8 mph - N/A   Mostly Cloudy
3:53 PM 78.1 °F - 70.0 °F 76% 29.71 in 10.0 mi East 3.5 mph - N/A   Clear
4:53 PM 79.0 °F - 71.1 °F 77% 29.69 in 10.0 mi ESE 4.6 mph - 0.00 in   Clear
5:53 PM 80.1 °F 84.2 °F 73.0 °F 79% 29.69 in 10.0 mi ENE 8.1 mph - N/A   Clear
6:53 PM 78.1 °F - 71.1 °F 79% 29.70 in 10.0 mi ESE 5.8 mph - N/A   Partly Cloudy
7:53 PM 77.0 °F - 71.1 °F 82% 29.72 in 10.0 mi East 6.9 mph - N/A   Clear
8:53 PM 75.9 °F - 72.0 °F 87% 29.73 in 10.0 mi East 4.6 mph - N/A   Clear
9:53 PM 75.0 °F - 72.0 °F 90% 29.74 in 10.0 mi East 4.6 mph - N/A   Clear
10:53 PM 73.0 °F - 71.1 °F 93% 29.74 in 10.0 mi Calm Calm - N/A   Clear
11:53 PM 73.0 °F - 70.0 °F 90% 29.72 in 10.0 mi Calm Calm - N/A   Clear